x

Middle Nomad (46004) Wave Buoy

1:00am - Sat 2nd Aug 2014 All times are PDT. -7 hours from GMT.

  • Sig Wave height 3.3ft
  • Peak Period 6s
  • Wind
    13mph, 18mph gusts
  • Air Temp 60°f
  • Sea Pressure 1021.6mb
  • Middle Nomad
  • Middle Nomad

More Historic Weather Station data

Upgrade to MSW Pro to gain access to the past 30 days of data for over 8000 Wavebouys and Weather Stations around the globe.

Join Pro

Comparision Forecast

View Surf forecast
   
Sat 08/02 1:00am 3.5ft 6s 13 18 mph 1021.6mb 60f
12:00am 3.5ft 6s 13 16 mph 1021.9mb 61f
Fri 08/01 11:00pm 3ft 6s 13 16 mph 1021.9mb 61f
10:00pm 3.5ft 6s 13
mph
1022.4mb 61f
9:00pm 3.5ft 6s 13
mph
1022.3mb 61f
8:00pm 3.5ft 6s 13
mph
1022.5mb 61f
7:00pm 3.5ft 6s 13 16 mph 1022.7mb 61f
6:00pm 3.5ft 6s 11
mph
1022.8mb 61f
5:00pm 3.5ft 6s 11 13 mph 1023.2mb 61f
4:00pm 3.5ft 6s 11 13 mph 1023.6mb 61f
3:00pm 3ft 6s 13
mph
1023.7mb 61f
2:00pm 3ft 13s 11 13 mph 1024mb 61f
1:00pm 3.5ft 6s 11 13 mph 1023.9mb 61f
12:00pm 3.5ft 6s 13
mph
1023.9mb 61f
11:00am 3.5ft 6s 11 13 mph 1024.3mb 60f
10:00am 3.5ft 5s 11 13 mph 1024.3mb 60f
9:00am 3ft 5s 13 16 mph 1024.5mb 60f
8:00am 3ft 14s 13
mph
1024.4mb 60f
7:00am 3.5ft 13s 13 18 mph 1024.1mb 60f
6:00am 3ft 14s 13 16 mph 1023.8mb 60f
5:00am 3ft 12s 13 16 mph 1023.8mb 60f
4:00am 3ft 14s 13 18 mph 1024.1mb 60f
3:00am 3.5ft 14s 13 16 mph 1024.5mb 60f
2:00am 3ft 13s 13 16 mph 1024.7mb 60f
1:00am 3ft 12s 13 16 mph 1024.8mb 60f
12:00am 3.5ft 13s 13 16 mph 1024.9mb 60f
Thu 07/31 11:00pm 3.5ft 13s 13
mph
1025.1mb 60f
10:00pm 3.5ft 14s 11 13 mph 1025.1mb 60f
9:00pm 3ft 13s 11 13 mph 1025mb 60f
8:00pm 3.5ft 7s 11 13 mph 1024.9mb 60f
7:00pm 3.5ft 7s 11 13 mph 1024.7mb 60f
6:00pm 3.5ft 5s 11 13 mph 1025mb 60f
5:00pm 3.5ft 6s 13 16 mph 1024.8mb 60f
3:00pm 3.5ft 14s 13
mph
1025mb 60f
2:00pm 3.5ft 5s 13
mph
1025.1mb 60f
1:00pm 3.5ft 7s 11 13 mph 1024.9mb 60f
12:00pm 4ft 7s 13
mph
1024.9mb 60f
11:00am 4ft 7s 13
mph
1024.7mb 60f
10:00am 3.5ft 7s 13 16 mph 1024.5mb 60f
9:00am 3.5ft 6s 13 16 mph 1024.3mb 60f
8:00am 3.5ft 6s 11 13 mph 1024.2mb 60f
7:00am 3.5ft 6s 9 13 mph 1024mb 59f
6:00am 3.5ft 6s 9 11 mph 1023.7mb 59f
5:00am 3.5ft 6s 9
mph
1023.7mb 59f
4:00am 3.5ft 6s 9 11 mph 1023.9mb 59f
3:00am 3.5ft 14s 11 13 mph 1023.7mb 59f
2:00am 3.5ft 5s 11 13 mph 1023.9mb 59f
1:00am 3.5ft 14s 13
mph
1024mb 60f
12:00am 3.5ft 14s 11 13 mph 1023.9mb 60f
Wed 07/30 11:00pm 3.5ft 14s 13 16 mph 1023.8mb 60f
10:00pm 3ft 5s 9 11 mph 1023.8mb 60f
9:00pm 3ft 14s 11 13 mph 1023.6mb 60f
8:00pm 3ft 14s 11 13 mph 1023.5mb 60f
7:00pm 3ft 5s 11 13 mph 1023.5mb 60f
6:00pm 3.5ft 13s 11 13 mph 1023.6mb 60f
5:00pm 3ft 14s 11 13 mph 1023.4mb 60f
4:00pm 3ft 14s 11 13 mph 1023.4mb 60f
3:00pm 3.5ft 14s 13 16 mph 1023.5mb 59f
2:00pm 3ft 14s 13 16 mph 1023.4mb 59f
1:00pm 3ft 5s 13 16 mph 1023.3mb 59f
12:00pm 3ft 14s 13
mph
1023.2mb 59f
11:00am 3.5ft 14s 13 16 mph 1022.8mb 59f
10:00am 3.5ft 14s 13
mph
1022.7mb 59f
9:00am 3.5ft 14s 11 13 mph 1022.4mb 59f
8:00am 3ft  -  13 16 mph 1022.2mb 59f
7:00am 3.5ft 14s 13
mph
1022mb 58f
6:00am 3.5ft 5s 13
mph
1021.7mb 58f
5:00am 3.5ft 15s 13 16 mph 1021.6mb 58f
4:00am 3.5ft 14s 13 16 mph 1021.7mb 58f
3:00am 3.5ft 6s 13 16 mph 1021.8mb 58f
2:00am 3.5ft 15s 11 16 mph 1021.9mb 58f
1:00am 3.5ft 5s 9 13 mph 1021.9mb 58f
12:00am 3.5ft 14s 11 13 mph 1022mb 58f
Tue 07/29 11:00pm 3.5ft 6s 11 13 mph 1022.2mb 58f
10:00pm 3.5ft 5s 11 13 mph 1022mb 58f
9:00pm 4ft 6s 11 13 mph 1021.7mb 58f
8:00pm 4.5ft 6s 11 13 mph 1021.6mb 59f
7:00pm 4.5ft 6s 11 16 mph 1021.6mb 59f
6:00pm 5ft 6s 13 16 mph 1021.4mb 59f
5:00pm 5ft 6s 13 18 mph 1021.1mb 59f
4:00pm 5.5ft 6s 16 18 mph 1020.7mb 59f
3:00pm 5ft 6s 16 20 mph 1020.5mb 59f
2:00pm 6ft 6s 18 20 mph 1020.2mb 59f
1:00pm 5.5ft 5s 18 22 mph 1019.9mb 59f
12:00pm 5ft 6s 18 22 mph 1019.4mb 58f
11:00am 5ft 6s 20 25 mph 1019mb 58f
10:00am 5ft 5s 20 25 mph 1018.3mb 58f